Tracking 35274 objects as of 11-Sep-2026
HD Live streaming from Space Station
objects crossing your sky now

OPS 1545


OPS 1545 is no longer on orbit


NORAD ID: 2393
Int'l Code: 1966-072A
Launch date: August 9, 1966
Source: United States (US)
Launch site: AIR FORCE WESTERN TEST RANGE (AFWTR)
Decay date: 1966-09-11
Your satellite tracking list
Your tracking list is empty




NASA's NSSDC Master Catalog

Two Line Element Set (TLE):
1 02393U 66072  A 66233.43427966  .00319831 +31232-3 +00000-0 0  9998
2 02393 100.1044 340.7116 0060837 138.1929 222.3317 16.17711401001873
Source of the keplerian elements: AFSPC